Time,TemperatureF,DewpointF,PressureIn,WindDirection,WindDirectionDegrees,WindSpeedMPH,WindSpeedGustMPH,Humidity,HourlyPrecipIn,Conditions,Clouds,dailyrainin,SolarRadiationWatts/m^2,SoftwareType,DateUTC
2013-04-17 00:00:00,44.9,33.9,30.30,NW,319,5.0,10.0,65,0.00,,---,0.16,0.00,VWS V14.01,2013-04-17 04:00:00,
2013-04-17 00:26:00,44.5,33.9,30.30,NW,315,4.0,9.0,66,0.00,,---,0.00,0.00,VWS V14.01,2013-04-17 04:26:00,
2013-04-17 00:30:00,44.5,33.9,30.30,NW,315,4.0,9.0,66,0.00,,---,0.00,0.00,VWS V14.01,2013-04-17 04:30:00,
2013-04-17 00:56:00,44.2,34.3,30.30,NW,326,3.0,9.0,68,0.00,,---,0.00,0.00,VWS V14.01,2013-04-17 04:56:00,
2013-04-17 01:00:00,44.2,34.3,30.30,NW,326,3.0,9.0,68,0.00,,---,0.00,0.00,VWS V14.01,2013-04-17 05:00:00,
2013-04-17 01:26:00,43.8,33.9,30.32,NW,315,4.0,8.0,68,0.00,,---,0.00,0.00,VWS V14.01,2013-04-17 05:26:00,
2013-04-17 01:30:00,43.8,33.9,30.32,NW,315,4.0,8.0,68,0.00,,---,0.00,0.00,VWS V14.01,2013-04-17 05:30:00,
2013-04-17 01:56:00,43.4,33.6,30.32,WNW,290,1.0,6.0,68,0.00,,---,0.00,0.00,VWS V14.01,2013-04-17 05:56:00,
2013-04-17 02:00:00,43.4,33.6,30.32,WNW,290,1.0,6.0,68,0.00,,---,0.00,0.00,VWS V14.01,2013-04-17 06:00:00,
2013-04-17 02:26:00,42.7,33.2,30.32,WNW,290,2.0,4.0,69,0.00,,---,0.00,0.00,VWS V14.01,2013-04-17 06:26:00,
2013-04-17 02:30:00,42.7,33.2,30.32,WNW,290,2.0,4.0,69,0.00,,---,0.00,0.00,VWS V14.01,2013-04-17 06:30:00,
2013-04-17 02:56:00,42.0,34.0,30.33,WNW,290,0.0,4.0,73,0.00,,---,0.00,0.00,VWS V14.01,2013-04-17 06:56:00,
2013-04-17 03:00:00,42.0,34.0,30.33,WNW,290,0.0,4.0,73,0.00,,---,0.00,0.00,VWS V14.01,2013-04-17 07:00:00,
2013-04-17 03:26:00,40.7,34.1,30.33,WNW,290,0.0,3.0,77,0.00,,---,0.00,0.00,VWS V14.01,2013-04-17 07:26:00,
2013-04-17 03:30:00,40.7,34.1,30.33,WNW,290,0.0,3.0,77,0.00,,---,0.00,0.00,VWS V14.01,2013-04-17 07:30:00,
2013-04-17 03:56:00,39.7,34.0,30.32,WNW,290,0.0,3.0,80,0.00,,---,0.00,0.00,VWS V14.01,2013-04-17 07:56:00,
2013-04-17 04:00:00,39.7,34.0,30.32,WNW,290,0.0,3.0,80,0.00,,---,0.00,0.00,VWS V14.01,2013-04-17 08:00:00,
2013-04-17 04:26:00,38.7,33.7,30.33,WNW,290,0.0,3.0,82,0.00,,---,0.00,0.00,VWS V14.01,2013-04-17 08:26:00,
2013-04-17 04:30:00,38.7,33.7,30.33,WNW,290,0.0,3.0,82,0.00,,---,0.00,0.00,VWS V14.01,2013-04-17 08:30:00,
2013-04-17 04:56:00,37.4,34.2,30.35,WNW,290,1.0,3.0,88,0.00,,---,0.00,0.00,VWS V14.01,2013-04-17 08:56:00,
2013-04-17 05:00:00,37.4,34.2,30.35,WNW,290,1.0,3.0,88,0.00,,---,0.00,0.00,VWS V14.01,2013-04-17 09:00:00,
2013-04-17 05:26:00,37.0,33.2,30.37,WNW,290,2.0,4.0,86,0.00,,---,0.00,0.00,VWS V14.01,2013-04-17 09:26:00,
2013-04-17 05:30:00,37.0,33.2,30.37,WNW,290,2.0,4.0,86,0.00,,---,0.00,0.00,VWS V14.01,2013-04-17 09:30:00,
2013-04-17 05:56:00,37.0,32.9,30.38,WNW,290,0.0,3.0,85,0.00,,---,0.00,0.00,VWS V14.01,2013-04-17 09:56:00,
2013-04-17 06:00:00,37.0,32.9,30.38,WNW,290,0.0,3.0,85,0.00,,---,0.00,0.00,VWS V14.01,2013-04-17 10:00:00,
2013-04-17 06:26:00,36.4,32.9,30.39,WNW,290,0.0,2.0,87,0.00,,---,0.00,5.00,VWS V14.01,2013-04-17 10:26:00,
2013-04-17 06:30:00,36.4,32.9,30.39,WNW,290,0.0,2.0,87,0.00,,---,0.00,5.00,VWS V14.01,2013-04-17 10:30:00,
2013-04-17 06:56:00,36.6,33.1,30.40,WNW,290,0.0,3.0,87,0.00,,---,0.00,39.00,VWS V14.01,2013-04-17 10:56:00,
2013-04-17 07:00:00,36.6,33.1,30.40,WNW,290,0.0,3.0,87,0.00,,---,0.00,39.00,VWS V14.01,2013-04-17 11:00:00,
2013-04-17 07:26:00,38.5,33.8,30.42,WNW,290,0.0,0.0,83,0.00,,---,0.00,116.00,VWS V14.01,2013-04-17 11:26:00,
2013-04-17 07:30:00,38.5,33.8,30.42,WNW,290,0.0,0.0,83,0.00,,---,0.00,116.00,VWS V14.01,2013-04-17 11:30:00,
2013-04-17 07:56:00,40.7,34.1,30.43,West,279,3.0,5.0,77,0.00,,---,0.00,211.00,VWS V14.01,2013-04-17 11:56:00,
2013-04-17 08:00:00,40.7,34.1,30.43,West,279,3.0,5.0,77,0.00,,---,0.00,211.00,VWS V14.01,2013-04-17 12:00:00,
2013-04-17 08:26:00,42.2,34.5,30.44,WNW,302,3.0,7.0,74,0.00,,---,0.00,304.00,VWS V14.01,2013-04-17 12:26:00,
2013-04-17 08:30:00,42.2,34.5,30.44,WNW,302,3.0,7.0,74,0.00,,---,0.00,304.00,VWS V14.01,2013-04-17 12:30:00,
2013-04-17 08:56:00,43.8,34.7,30.43,West,275,0.0,6.0,70,0.00,,---,0.00,394.00,VWS V14.01,2013-04-17 12:56:00,
2013-04-17 09:00:00,43.8,34.7,30.43,West,275,0.0,6.0,70,0.00,,---,0.00,394.00,VWS V14.01,2013-04-17 13:00:00,
2013-04-17 09:26:00,45.6,35.7,30.44,NW,304,2.0,4.0,68,0.00,,---,0.00,482.00,VWS V14.01,2013-04-17 13:26:00,
2013-04-17 09:30:00,45.6,35.7,30.44,NW,304,2.0,4.0,68,0.00,,---,0.00,482.00,VWS V14.01,2013-04-17 13:30:00,
2013-04-17 09:56:00,46.2,36.2,30.43,NNE,13,3.0,6.0,68,0.00,,---,0.00,564.00,VWS V14.01,2013-04-17 13:56:00,
2013-04-17 10:00:00,46.2,36.2,30.43,NNE,13,3.0,6.0,68,0.00,,---,0.00,564.00,VWS V14.01,2013-04-17 14:00:00,
2013-04-17 10:26:00,48.6,36.2,30.44,ENE,58,5.0,10.0,62,0.00,,---,0.00,638.00,VWS V14.01,2013-04-17 14:26:00,
2013-04-17 10:30:00,48.6,36.2,30.44,ENE,58,5.0,10.0,62,0.00,,---,0.00,638.00,VWS V14.01,2013-04-17 14:30:00,
2013-04-17 10:56:00,48.4,36.4,30.44,ENE,71,4.0,11.0,63,0.00,,---,0.00,701.00,VWS V14.01,2013-04-17 14:56:00,
2013-04-17 11:00:00,48.4,36.4,30.44,ENE,71,4.0,11.0,63,0.00,,---,0.00,701.00,VWS V14.01,2013-04-17 15:00:00,
2013-04-17 11:26:00,49.9,35.7,30.43,ENE,59,5.0,13.0,58,0.00,,---,0.00,758.00,VWS V14.01,2013-04-17 15:26:00,
2013-04-17 11:30:00,49.9,35.7,30.43,ENE,59,5.0,13.0,58,0.00,,---,0.00,758.00,VWS V14.01,2013-04-17 15:30:00,
2013-04-17 11:57:00,50.7,35.1,30.43,NNW,329,4.0,11.0,55,0.00,,---,0.00,798.00,VWS V14.01,2013-04-17 15:57:00,
2013-04-17 12:00:00,50.7,35.1,30.43,NNW,329,4.0,11.0,55,0.00,,---,0.00,798.00,VWS V14.01,2013-04-17 16:00:00,
2013-04-17 12:26:00,50.9,34.9,30.43,NE,49,0.0,10.0,54,0.00,,---,0.00,828.00,VWS V14.01,2013-04-17 16:26:00,
2013-04-17 12:30:00,50.9,34.9,30.43,NE,49,0.0,10.0,54,0.00,,---,0.00,828.00,VWS V14.01,2013-04-17 16:30:00,
2013-04-17 12:56:00,52.3,34.7,30.42,ENE,63,3.0,8.0,51,0.00,,---,0.00,840.00,VWS V14.01,2013-04-17 16:56:00,
2013-04-17 13:00:00,52.3,34.7,30.42,ENE,63,3.0,8.0,51,0.00,,---,0.00,840.00,VWS V14.01,2013-04-17 17:00:00,
2013-04-17 13:26:00,53.1,34.5,30.42,NE,34,5.0,8.0,49,0.00,,---,0.00,842.00,VWS V14.01,2013-04-17 17:26:00,
2013-04-17 13:30:00,53.1,34.5,30.42,NE,34,5.0,8.0,49,0.00,,---,0.00,842.00,VWS V14.01,2013-04-17 17:30:00,
2013-04-17 13:56:00,53.1,35.0,30.42,ENE,78,0.0,11.0,50,0.00,,---,0.00,826.00,VWS V14.01,2013-04-17 17:56:00,
2013-04-17 14:00:00,53.1,35.0,30.42,ENE,78,0.0,11.0,50,0.00,,---,0.00,826.00,VWS V14.01,2013-04-17 18:00:00,
2013-04-17 14:26:00,53.3,34.7,30.43,NE,53,1.0,13.0,49,0.00,,---,0.00,798.00,VWS V14.01,2013-04-17 18:26:00,
2013-04-17 14:30:00,53.3,34.7,30.43,NE,53,1.0,13.0,49,0.00,,---,0.00,798.00,VWS V14.01,2013-04-17 18:30:00,
2013-04-17 14:56:00,52.8,32.1,30.42,NE,53,10.0,12.0,45,0.00,,---,0.00,761.00,VWS V14.01,2013-04-17 18:56:00,
2013-04-17 15:00:00,52.8,32.1,30.42,NE,53,10.0,12.0,45,0.00,,---,0.00,761.00,VWS V14.01,2013-04-17 19:00:00,
2013-04-17 15:26:00,53.5,32.7,30.42,NNE,29,7.0,11.0,45,0.00,,---,0.00,708.00,VWS V14.01,2013-04-17 19:26:00,
2013-04-17 15:30:00,53.5,32.7,30.42,NNE,29,7.0,11.0,45,0.00,,---,0.00,708.00,VWS V14.01,2013-04-17 19:30:00,
2013-04-17 15:56:00,53.8,32.4,30.42,ENE,67,7.0,11.0,44,0.00,,---,0.00,643.00,VWS V14.01,2013-04-17 19:56:00,
2013-04-17 16:00:00,53.8,32.4,30.42,ENE,67,7.0,15.0,44,0.00,,---,0.00,643.00,VWS V14.01,2013-04-17 20:00:00,
2013-04-17 16:26:00,52.7,32.0,30.39,NE,46,3.0,14.0,45,0.00,,---,0.00,570.00,VWS V14.01,2013-04-17 20:26:00,
2013-04-17 16:30:00,52.7,32.0,30.39,NE,46,3.0,14.0,45,0.00,,---,0.00,570.00,VWS V14.01,2013-04-17 20:30:00,
2013-04-17 16:56:00,52.6,32.4,30.39,NE,55,5.0,11.0,46,0.00,,---,0.00,487.00,VWS V14.01,2013-04-17 20:56:00,
2013-04-17 17:00:00,52.6,32.4,30.39,NE,55,5.0,11.0,46,0.00,,---,0.00,487.00,VWS V14.01,2013-04-17 21:00:00,
2013-04-17 17:26:00,52.3,32.7,30.39,NE,47,6.0,11.0,47,0.00,,---,0.00,401.00,VWS V14.01,2013-04-17 21:26:00,
2013-04-17 17:30:00,52.3,32.7,30.39,NE,47,6.0,11.0,47,0.00,,---,0.00,401.00,VWS V14.01,2013-04-17 21:30:00,
2013-04-17 17:56:00,51.2,30.0,30.39,East,84,3.0,11.0,44,0.00,,---,0.00,309.00,VWS V14.01,2013-04-17 21:56:00,
2013-04-17 18:00:00,51.2,30.0,30.39,East,84,3.0,11.0,44,0.00,,---,0.00,309.00,VWS V14.01,2013-04-17 22:00:00,
2013-04-17 18:26:00,51.5,29.8,30.38,NE,53,4.0,10.0,43,0.00,,---,0.00,213.00,VWS V14.01,2013-04-17 22:26:00,
2013-04-17 18:30:00,51.5,29.8,30.38,NE,53,4.0,10.0,43,0.00,,---,0.00,213.00,VWS V14.01,2013-04-17 22:30:00,
2013-04-17 18:56:00,51.2,28.9,30.37,East,90,2.0,9.0,42,0.00,,---,0.00,95.00,VWS V14.01,2013-04-17 22:56:00,
2013-04-17 19:00:00,51.2,28.9,30.37,East,90,2.0,9.0,42,0.00,,---,0.00,95.00,VWS V14.01,2013-04-17 23:00:00,
2013-04-17 19:26:00,49.4,31.6,30.38,NE,50,0.0,8.0,50,0.00,,---,0.00,21.00,VWS V14.01,2013-04-17 23:26:00,
2013-04-17 19:30:00,49.4,31.6,30.38,NE,50,0.0,8.0,50,0.00,,---,0.00,21.00,VWS V14.01,2013-04-17 23:30:00,
2013-04-17 19:56:00,48.7,32.3,30.39,ENE,59,0.0,5.0,53,0.00,,---,0.00,0.00,VWS V14.01,2013-04-17 23:56:00,
2013-04-17 20:00:00,48.7,32.3,30.39,ENE,59,0.0,5.0,53,0.00,,---,0.00,0.00,VWS V14.01,2013-04-18 00:00:00,
2013-04-17 20:26:00,47.9,33.4,30.38,ENE,58,1.0,4.0,57,0.00,,---,0.00,0.00,VWS V14.01,2013-04-18 00:26:00,
2013-04-17 20:30:00,47.9,33.4,30.38,ENE,58,1.0,4.0,57,0.00,,---,0.00,0.00,VWS V14.01,2013-04-18 00:30:00,
2013-04-17 20:57:00,47.3,34.1,30.36,ENE,61,0.0,4.0,60,0.00,,---,0.00,0.00,VWS V14.01,2013-04-18 00:57:00,
2013-04-17 21:00:00,47.3,34.1,30.36,ENE,61,0.0,4.0,60,0.00,,---,0.00,0.00,VWS V14.01,2013-04-18 01:00:00,
2013-04-17 21:26:00,46.8,34.1,30.36,ENE,63,2.0,3.0,61,0.00,,---,0.00,0.00,VWS V14.01,2013-04-18 01:26:00,
2013-04-17 21:30:00,46.8,34.1,30.36,ENE,63,2.0,3.0,61,0.00,,---,0.00,0.00,VWS V14.01,2013-04-18 01:30:00,
2013-04-17 21:56:00,46.5,34.2,30.35,East,90,2.0,5.0,62,0.00,,---,0.00,0.00,VWS V14.01,2013-04-18 01:56:00,
2013-04-17 22:00:00,46.5,34.2,30.35,East,90,2.0,5.0,62,0.00,,---,0.00,0.00,VWS V14.01,2013-04-18 02:00:00,
2013-04-17 22:26:00,46.4,34.1,30.34,East,98,0.0,5.0,62,0.00,,---,0.00,0.00,VWS V14.01,2013-04-18 02:26:00,
2013-04-17 22:30:00,46.4,34.1,30.34,East,98,0.0,5.0,62,0.00,,---,0.00,0.00,VWS V14.01,2013-04-18 02:30:00,
2013-04-17 22:56:00,45.4,34.3,30.33,ESE,103,0.0,5.0,65,0.00,,---,0.00,0.00,VWS V14.01,2013-04-18 02:56:00,
2013-04-17 23:00:00,45.4,34.3,30.33,ESE,103,0.0,5.0,65,0.00,,---,0.00,0.00,VWS V14.01,2013-04-18 03:00:00,
2013-04-17 23:26:00,44.9,35.0,30.32,ESE,104,0.0,2.0,68,0.00,,---,0.00,0.00,VWS V14.01,2013-04-18 03:26:00,
2013-04-17 23:30:00,44.9,35.0,30.32,ESE,104,0.0,2.0,68,0.00,,---,0.00,0.00,VWS V14.01,2013-04-18 03:30:00,
2013-04-17 23:56:00,44.0,35.2,30.33,ESE,104,0.0,2.0,71,0.00,,---,0.00,0.00,VWS V14.01,2013-04-18 03:56:00,